Regional Weather Roundup
Issued by NWS Cleveland, OH

Home | Current Version | Previous Version | Text Only | Print | Product List | Glossary Off
Versions: 1 2 3 4 5 6 7 8 9 10 11 12 13 14 15 16 17 18 19 20 21 22 23 24 25 26 27 28 29 30 31 32 33 34 35 36 37 38 39 40 41 42 43 44 45 46 47 48 49 50

000
ASUS41 KCLE 181910
RWRCLE
OHIO REGIONAL WEATHER ROUNDUP
NATIONAL WEATHER SERVICE WILMINGTON, OH
300 PM EDT THU SEP 18 2014

NOTE: "FAIR" INDICATES FEW OR NO CLOUDS BELOW 12,000 FEET WITH NO
SIGNIFICANT WEATHER AND/OR OBSTRUCTIONS TO VISIBILITY.

OHZ001>008-015>018-024>027-034-035-043-044-182000-
   NORTHWEST OHIO

CITY           SKY/WX    TMP DP  RH WIND       PRES   REMARKS
DEFIANCE       SUNNY     71  47  42 E7        30.12F
FINDLAY        SUNNY     73  48  41 NE9       30.10F
TOLEDO EXPRESS SUNNY     70  48  45 VRB6      30.12F
TOLEDO METCALF SUNNY     69  50  50 E6        30.13F
LIMA           SUNNY     72  48  42 NE8       30.11F
$$

OHZ009>014-019>023-028>033-038-089-182000-
   NORTHEAST OHIO

CITY           SKY/WX    TMP DP  RH WIND       PRES   REMARKS
CLE-HOPKINS    PTSUNNY   64  54  69 N14       30.15S
CLE-LAKEFRONT  SUNNY     65  54  67 N13       30.13S
CUY CO. ARPT   MOSUNNY   68  57  68 N14       30.13S
LORAIN-ELYRIA  MOSUNNY   68  53  58 NE10      30.13F
ASHTABULA      MOSUNNY   66  54  65 N9        30.13S
AKRON-CANTON   PTSUNNY   69  48  47 N6        30.10F
WOOSTER        MOSUNNY   70  48  45 NE3       30.11F
MANSFIELD      MOSUNNY   68  48  48 N9        30.11F
YOUNGSTOWN     PTSUNNY   68  49  50 VRB5      30.10F
$$

OHZ042-051>053-060>062-070>072-077>081-182000-
  SOUTHWEST OHIO

CITY           SKY/WX    TMP DP  RH WIND       PRES   REMARKS
CINC-COVINGTON MOSUNNY   72  47  40 E9        30.07F
CINC-LUNKEN    SUNNY     72  49  44 E5        30.08F
HAMILTON       SUNNY     72  49  44 E9        30.09F
DAYTON         MOSUNNY   72  45  37 VRB5      30.10F
WRIGHT-PAT AFB SUNNY     72  45  37 E8        30.09F
DAYTON GENERAL SUNNY     70  47  43 CALM      30.08F
WILMINGTON     SUNNY     71  45  39 NE10      30.08F
$$

OHZ036-037-039>041-045>050-054>059-063>069-073>076-082>088-182000-
  CENTRAL AND SOUTHEAST OHIO

CITY           SKY/WX    TMP DP  RH WIND       PRES   REMARKS
COLUMBUS       MOSUNNY   75  45  34 NE8       30.08F
OSU AIRPORT    SUNNY     71  46  40 NE8G16    30.08F
BOLTON FIELD   SUNNY     70  48  46 NE7       30.09F
RICKENBACK AFB MOSUNNY   70  45  39 NE12      30.08S
NEWARK         MOSUNNY   70  45  40 NE6       30.08F
MARION         PTSUNNY   70  47  43 NE10G17   30.11F
LANCASTER      MOSUNNY   72  45  37 NE9       30.09F
ZANESVILLE     SUNNY     70  44  39 NE10      30.09F
NEW PHILLY     PTSUNNY   70  46  42 N8        30.10F
$$



USA.gov is the U.S. government's official web portal to all federal, state and local government web resources and services.